Change the Weather History Date:

Friday, July 26, 2013

  Actual Average (KAUN) Record (KAUN)
Temperature  
Mean Temperature 81 °F -  
Max Temperature 98 °F 94 °F 106 °F (1959)
Min Temperature 64 °F 63 °F 52 °F (1963)
Cooling Degree Days 16    
Growing Degree Days 31 (Base 50)    
Moisture  
Dew Point 49 °F    
Average Humidity 34    
Maximum Humidity 59    
Minimum Humidity 18    
Precipitation  
Precipitation 0.00 in - - ()
Sea Level Pressure  
Sea Level Pressure 29.95 in    
Wind  
Wind Speed 9 mph (South)    
Max Wind Speed 13 mph    
Max Gust Speed 9 mph    
Visibility 10 miles    
Events      
Averages and records for this station are not official NWS values.
T = Trace of Precipitation, MM = Missing Value Source: NWS Daily Summary

Daily Weather History Graph

Daily Weather History Graph

Search for Another Location

Airport or City:

Trip Planner

Search our weather history database for the weather conditions in past years. The results will help you decide how hot, cold, wet, or windy it might be!

Date:

Astronomy

Jul. 26, 2013 Rise Set
Actual Time 6:01 AM PDT 8:21 PM PDT
Civil Twilight 5:31 AM PDT 8:52 PM PDT
Nautical Twilight 4:53 AM PDT 9:29 PM PDT
Astronomical Twilight 4:12 AM PDT 10:09 PM PDT
Moon 10:42 PM PDT (7/26) 10:40 AM PDT (7/26)
Length of Visible Light 15h 20m
Length of Day
14h 20m
Waning Gibbous, 79% of the Moon is Illuminated
Jul 26
Waning Gibbous
Jul 29
Last Quarter
Aug 6
New
Aug 14
First Quarter
Aug 20
Full

Hourly Weather History & Observations

Time (PDT) Temp. Dew Point Humidity Pressure Visibility Wind Dir Wind Speed Gust Speed Precip Events Conditions
12:15 AM 78.8 °F 46.4 °F 32% 29.91 in 10.0 mi SSE 11.5 mph - N/A   Clear
12:35 AM 77.0 °F 46.4 °F 34% 29.91 in 10.0 mi SSE 12.7 mph - N/A   Clear
12:55 AM 77.0 °F 46.4 °F 34% 29.92 in 10.0 mi SSE 10.4 mph - N/A   Clear
1:15 AM 77.0 °F 46.4 °F 34% 29.92 in 10.0 mi SSE 11.5 mph - N/A   Clear
1:35 AM 75.2 °F 46.4 °F 36% 29.92 in 10.0 mi SSE 9.2 mph - N/A   Clear
1:55 AM 73.4 °F 46.4 °F 38% 29.92 in 10.0 mi South 11.5 mph - N/A   Clear
2:15 AM 73.4 °F 46.4 °F 38% 29.92 in 10.0 mi South 9.2 mph - N/A   Clear
2:35 AM 71.6 °F 46.4 °F 41% 29.92 in 10.0 mi South 12.7 mph - N/A   Clear
2:55 AM 71.6 °F 48.2 °F 43% 29.93 in 10.0 mi South 8.1 mph - N/A   Clear
3:15 AM 69.8 °F 48.2 °F 46% 29.93 in 10.0 mi South 11.5 mph - N/A   Clear
3:35 AM 69.8 °F 48.2 °F 46% 29.93 in 10.0 mi South 8.1 mph - N/A   Clear
3:55 AM 69.8 °F 48.2 °F 46% 29.93 in 10.0 mi South 8.1 mph - N/A   Clear
4:15 AM 69.8 °F 48.2 °F 46% 29.94 in 10.0 mi South 8.1 mph - N/A   Clear
4:35 AM 68.0 °F 50.0 °F 52% 29.94 in 10.0 mi SSE 8.1 mph - N/A   Clear
4:55 AM 66.2 °F 50.0 °F 56% 29.94 in 10.0 mi SSE 6.9 mph - N/A   Clear
5:15 AM 68.0 °F 48.2 °F 49% 29.95 in 10.0 mi SSE 8.1 mph - N/A   Clear
5:35 AM 68.0 °F 48.2 °F 49% 29.95 in 10.0 mi SSE 9.2 mph - N/A   Clear
5:55 AM 68.0 °F 48.2 °F 49% 29.96 in 10.0 mi SE 6.9 mph - N/A   Clear
6:15 AM 66.2 °F 50.0 °F 56% 29.97 in 10.0 mi South 8.1 mph - N/A   Clear
6:35 AM 66.2 °F 50.0 °F 56% 29.97 in 10.0 mi South 8.1 mph - N/A   Clear
6:55 AM 64.4 °F 50.0 °F 59% 29.98 in 10.0 mi SSE 8.1 mph - N/A   Clear
7:15 AM 68.0 °F 50.0 °F 52% 29.98 in 10.0 mi South 8.1 mph - N/A   Clear
7:35 AM 68.0 °F 50.0 °F 52% 29.99 in 10.0 mi South 9.2 mph - N/A   Clear
7:55 AM 69.8 °F 50.0 °F 49% 30.00 in 10.0 mi South 10.4 mph - N/A   Clear
8:15 AM 71.6 °F 50.0 °F 46% 30.00 in 10.0 mi SSE 6.9 mph - N/A   Clear
8:35 AM 73.4 °F 48.2 °F 41% 30.01 in 10.0 mi SSE 9.2 mph - N/A   Clear
8:55 AM 75.2 °F 46.4 °F 36% 30.01 in 10.0 mi SSE 10.4 mph - N/A   Clear
9:15 AM 78.8 °F 46.4 °F 32% 30.01 in 10.0 mi SSE 9.2 mph - N/A   Clear
9:35 AM 78.8 °F 46.4 °F 32% 30.01 in 10.0 mi South 10.4 mph - N/A   Clear
9:55 AM 80.6 °F 46.4 °F 30% 30.01 in 10.0 mi South 8.1 mph - N/A   Clear
10:15 AM 82.4 °F 46.4 °F 28% 30.01 in 10.0 mi SSE 11.5 mph - N/A   Clear
10:35 AM 82.4 °F 46.4 °F 28% 30.01 in 10.0 mi SSE 10.4 mph - N/A   Clear
10:55 AM 84.2 °F 48.2 °F 29% 30.01 in 10.0 mi South 11.5 mph - N/A   Clear
11:15 AM 86.0 °F 48.2 °F 27% 30.01 in 10.0 mi South 12.7 mph - N/A   Clear
11:35 AM 86.0 °F 46.4 °F 25% 30.01 in 10.0 mi South 10.4 mph - N/A   Clear
11:55 AM 86.0 °F 48.2 °F 27% 30.00 in 10.0 mi South 10.4 mph - N/A   Clear
12:15 PM 86.0 °F 50.0 °F 29% 30.00 in 10.0 mi SSW 10.4 mph - N/A   Clear
12:35 PM 86.0 °F 50.0 °F 29% 29.99 in 10.0 mi South 10.4 mph - N/A   Clear
12:55 PM 87.8 °F 48.2 °F 25% 29.99 in 10.0 mi South 5.8 mph 9.2 mph N/A   Clear
1:15 PM 87.8 °F 50.0 °F 27% 29.98 in 10.0 mi South 5.8 mph - N/A   Clear
1:35 PM 89.6 °F 50.0 °F 26% 29.97 in 10.0 mi SSW 5.8 mph - N/A   Clear
1:55 PM 89.6 °F 51.8 °F 27% 29.97 in 10.0 mi SW 5.8 mph - N/A   Clear
2:15 PM 93.2 °F 50.0 °F 23% 29.96 in 10.0 mi SW 5.8 mph - N/A   Clear
2:35 PM 93.2 °F 50.0 °F 23% 29.95 in 10.0 mi SW 9.2 mph - N/A   Clear
2:55 PM 95.0 °F 51.8 °F 23% 29.95 in 10.0 mi SW 5.8 mph - N/A   Clear
3:15 PM 95.0 °F 50.0 °F 22% 29.94 in 10.0 mi SW 5.8 mph - N/A   Clear
3:35 PM 96.8 °F 50.0 °F 20% 29.93 in 10.0 mi SSW 6.9 mph - N/A   Clear
3:55 PM 96.8 °F 50.0 °F 20% 29.93 in 10.0 mi SSW 8.1 mph - N/A   Clear
4:15 PM 98.6 °F 50.0 °F 19% 29.92 in 10.0 mi WSW 8.1 mph - N/A   Clear
4:35 PM 98.6 °F 50.0 °F 19% 29.91 in 10.0 mi SW 6.9 mph - N/A   Clear
4:55 PM 98.6 °F 50.0 °F 19% 29.90 in 10.0 mi SSW 8.1 mph - N/A   Clear
5:15 PM 98.6 °F 50.0 °F 19% 29.90 in 10.0 mi SSW 5.8 mph - N/A   Clear
5:35 PM 98.6 °F 51.8 °F 21% 29.89 in 10.0 mi SSW 8.1 mph - N/A   Clear
5:55 PM 98.6 °F 50.0 °F 19% 29.89 in 10.0 mi SW 9.2 mph - N/A   Clear
6:15 PM 98.6 °F 48.2 °F 18% 29.88 in 10.0 mi SSW 8.1 mph - N/A   Clear
6:35 PM 98.6 °F 50.0 °F 19% 29.88 in 10.0 mi SSW 9.2 mph - N/A   Clear
6:55 PM 98.6 °F 50.0 °F 19% 29.88 in 10.0 mi South 10.4 mph - N/A   Clear
7:15 PM 96.8 °F 50.0 °F 20% 29.88 in 10.0 mi South 10.4 mph - N/A   Clear
7:35 PM 95.0 °F 51.8 °F 23% 29.88 in 10.0 mi South 11.5 mph - N/A   Clear
7:55 PM 93.2 °F 51.8 °F 24% 29.88 in 10.0 mi South 9.2 mph - N/A   Clear
8:15 PM 89.6 °F 51.8 °F 27% 29.89 in 10.0 mi South 6.9 mph - N/A   Clear
8:35 PM 87.8 °F 51.8 °F 29% 29.90 in 10.0 mi SSE 9.2 mph - N/A   Clear
8:55 PM 86.0 °F 51.8 °F 31% 29.90 in 10.0 mi SSE 10.4 mph - N/A   Clear
9:15 PM 84.2 °F 51.8 °F 33% 29.91 in 10.0 mi SSE 8.1 mph - N/A   Clear
9:35 PM 82.4 °F 51.8 °F 35% 29.92 in 10.0 mi SSE 8.1 mph - N/A   Clear
9:55 PM 82.4 °F 51.8 °F 35% 29.93 in 10.0 mi SSE 8.1 mph - N/A   Clear
10:15 PM 80.6 °F 51.8 °F 37% 29.94 in 10.0 mi SE 8.1 mph - N/A   Clear
10:35 PM 78.8 °F 50.0 °F 36% 29.95 in 10.0 mi SSE 9.2 mph - N/A   Clear
10:55 PM 78.8 °F 50.0 °F 36% 29.94 in 10.0 mi SSE 11.5 mph - N/A   Clear
11:15 PM 77.0 °F 50.0 °F 39% 29.94 in 10.0 mi SSE 9.2 mph - N/A   Clear
11:35 PM 77.0 °F 50.0 °F 39% 29.93 in 10.0 mi SSE 10.4 mph - N/A   Clear
11:55 PM 73.4 °F 50.0 °F 44% 29.93 in 10.0 mi SSE 5.8 mph - N/A   Clear